Location: Moy Burn
(57.3833°N, 4.0667°W)
Time: 09:52:46
(UTC+00:00)

NOSS 3-2 (C) - Pass Details

Date: 08 August 2020
Orbit: 800 x 1413 km, 63.4° (Epoch: 15 September)

Event Time Altitude Azimuth Distance (km) Brightness Sun altitude
Exits shadow 23:23:11 - 219° (SW) 2,820 5.6 -15.8°
Reaches altitude 10° 23:23:54 10° 218° (SW) 2,554 5.3 -15.9°
Maximum altitude 23:29:48 69° 136° (SE) 1,047 3.5 -16.0°
Drops below altitude 10° 23:36:39 10° 55° (NE) 2,963 6.3 -16.2°
Sets 23:39:33 0° 54° (NE) 4,020 7.1 -16.3°
